Tracking 29782 objects as of 13-Oct-2024
HD Live streaming from Space Station
objects crossing your sky now

STARLINK-4606

Track STARLINK-4606 now!
10-day predictions
STARLINK-4606 is classified as:


NORAD ID: 53632
Int'l Code: 2022-104AW
Perigee: 546.0 km
Apogee: 547.9 km
Inclination: 53.2 °
Period: 95.4 minutes
Semi major axis: 6917 km
RCS: Unknown
Launch date: August 28, 2022
Source: United States (US)
Launch site: AIR FORCE EASTERN TEST RANGE (AFETR)
Your satellite tracking list
Your tracking list is empty




NASA's NSSDC Master Catalog

Two Line Element Set (TLE):
1 53632U 22104AW  24286.51560866 -.00001924  00000-0 -10289-3 0  9998
2 53632  53.2172   7.8299 0001397  83.2611 276.8540 15.08822345118759
Source of the keplerian elements: AFSPC